GW0339 Weather Reports


time (UTC)temp
C
wind
direction
speed
KPH
gust
KPH
rain 1hr
cm
rain 24hr
cm
rain mn
cm
humidity
%
barometer
mb
20260510203108 6 69 0.0 0.0 0.00 0.00 0.00 92 1035.1
20260510202114 6 56 0.0 0.0 0.00 0.00 0.00 92 1035.0
20260510201047 6 56 0.0 0.0 0.00 0.00 0.00 92 1035.1
20260510200043 6 56 0.0 0.0 0.00 0.00 0.00 92 1035.1
20260510193922 6 56 0.0 0.0 0.00 0.00 0.00 92 1034.8
20260510192945 6 56 0.0 0.0 0.00 0.00 0.00 92 1034.7
20260510192006 6 56 0.0 0.0 0.00 0.00 0.00 92 1034.6
20260510184723 6 56 0.0 0.0 0.00 0.00 0.00 92 1034.1
20260510183735 6 56 0.0 0.0 0.00 0.00 0.00 92 1034.1
20260510182721 7 56 0.0 0.0 0.00 0.00 0.00 92 1034.0
20260510181746 7 56 0.0 0.0 0.00 0.03 0.00 92 1034.0
20260510180759 6 56 0.0 0.0 0.00 0.03 0.00 92 1034.0
20260510175801 7 56 0.0 0.0 0.00 0.03 0.00 91 1033.9
20260510174743 7 56 0.0 0.0 0.00 0.03 0.00 91 1033.9
20260510173803 7 56 0.0 0.0 0.00 0.03 0.00 92 1033.8
20260510172736 7 56 0.0 0.0 0.00 0.03 0.00 91 1033.8
20260510170531 7 56 0.0 0.0 0.00 0.03 0.00 91 1033.9
20260510164407 7 56 0.0 0.0 0.00 0.03 0.00 91 1033.9
20260510163358 7 56 0.0 0.0 0.00 0.03 0.00 91 1033.9
20260510162358 7 56 0.0 0.0 0.00 0.03 0.00 91 1033.9
20260510161350 8 56 0.0 0.0 0.00 0.03 0.00 91 1034.0
20260510160324 7 56 0.0 0.0 0.00 0.03 0.00 91 1034.1
20260510155307 8 56 0.0 0.0 0.00 0.05 0.00 91 1034.1
20260510154318 8 101 0.0 0.0 0.00 0.05 0.00 91 1034.1
20260510153251 8 101 0.0 0.0 0.00 0.05 0.00 91 1034.1
20260510152306 8 101 0.0 0.0 0.00 0.05 0.00 90 1034.1
20260510151232 8 325 0.0 0.0 0.00 0.05 0.00 90 1034.0
20260510150227 8 325 0.0 0.0 0.00 0.05 0.00 90 1034.1
20260510135337 9 325 0.0 0.0 0.00 0.03 0.03 89 1034.1
20260510134312 9 325 0.0 0.0 0.00 0.03 0.03 89 1034.0
20260510133252 9 315 0.0 0.0 0.00 0.03 0.03 89 1033.9
20260510132300 9 315 0.0 0.0 0.00 0.03 0.03 89 1033.9
20260510131242 9 315 0.0 0.0 0.00 0.03 0.03 88 1034.0
20260510130304 10 315 0.0 0.0 0.00 0.03 0.03 88 1034.1
20260510125307 10 315 0.0 0.0 0.00 0.03 0.03 88 1034.3
20260510124231 10 315 0.0 0.0 0.00 0.03 0.03 88 1034.3
20260510123213 10 315 0.0 0.0 0.00 0.03 0.03 88 1034.1
20260510122219 10 315 0.0 0.0 0.00 0.03 0.03 88 1034.3
20260510120046 10 315 0.0 0.0 0.00 0.03 0.03 87 1034.3
20260510113845 11 315 0.0 1.6 0.00 0.03 0.03 86 1034.1
20260510112818 11 315 0.0 0.0 0.00 0.03 0.03 86 1034.1
20260510110626 11 315 0.0 0.0 0.00 0.03 0.03 85 1033.8
20260510105620 11 315 0.0 0.0 0.00 0.03 0.03 85 1033.6
20260510104548 11 315 0.0 0.0 0.00 0.03 0.03 84 1033.7
20260510103518 11 315 0.0 0.0 0.00 0.03 0.03 84 1033.8
20260510102523 12 315 0.0 0.0 0.00 0.03 0.03 83 1033.7
20260510101513 12 315 0.0 0.0 0.00 0.03 0.03 83 1033.7
20260510100518 12 315 0.0 0.0 0.00 0.03 0.03 83 1033.6
20260510095513 12 315 0.0 0.0 0.00 0.03 0.03 82 1033.6
20260510094531 12 315 0.0 0.0 0.00 0.03 0.03 82 1033.6
20260510093506 12 315 0.0 0.0 0.00 0.03 0.03 81 1033.5
20260510092531 12 315 0.0 0.0 0.00 0.03 0.03 81 1033.5
20260510091529 12 315 0.0 0.0 0.00 0.03 0.03 81 1033.4
20260510090549 12 315 0.0 1.6 0.00 0.03 0.03 81 1033.3
20260510085604 12 225 0.0 0.0 0.00 0.03 0.03 80 1033.3
20260510084627 12 225 0.0 0.0 0.00 0.03 0.03 79 1033.2
20260510083615 12 225 0.0 0.0 0.00 0.03 0.03 79 1033.1
20260510082603 12 225 0.0 0.0 0.00 0.03 0.03 78 1033.1
20260510081543 12 225 0.0 0.0 0.00 0.03 0.03 76 1033.0
20260510075342 13 225 0.0 0.0 0.00 0.03 0.03 74 1032.8
20260510074404 13 225 0.0 0.0 0.00 0.03 0.03 74 1032.6
20260510072256 14 231 0.0 0.0 0.00 0.03 0.03 73 1032.6
20260510071235 14 223 0.0 3.2 0.00 0.03 0.03 72 1032.5
20260510070204 14 210 0.0 4.8 0.00 0.03 0.03 72 1032.4
20260510065139 15 184 0.0 8.0 0.00 0.03 0.03 71 1032.4
20260510064113 15 192 1.6 8.0 0.00 0.03 0.03 70 1032.4
20260510063113 15 181 0.0 4.8 0.00 0.03 0.03 69 1032.3
20260510060948 15 213 1.6 6.4 0.00 0.03 0.03 68 1032.3
20260510055919 16 222 0.0 9.7 0.00 0.03 0.03 68 1032.3
20260510053754 16 205 1.6 8.0 0.00 0.03 0.03 67 1032.2
20260510051620 16 257 1.6 8.0 0.00 0.03 0.03 67 1032.0
20260510050609 15 211 0.0 0.0 0.00 0.03 0.03 69 1032.0
20260510045538 15 180 1.6 8.0 0.00 0.03 0.03 67 1032.0
20260510044533 16 190 1.6 12.9 0.00 0.03 0.03 67 1032.2
20260510043544 16 180 0.0 12.9 0.00 0.03 0.03 67 1032.1
20260510042512 15 145 3.2 11.3 0.00 0.03 0.03 67 1032.0
20260510041445 15 194 0.0 12.9 0.00 0.03 0.03 69 1032.1
20260510040426 15 141 4.8 12.9 0.00 0.03 0.03 69 1032.2
20260510035446 15 203 3.2 12.9 0.00 0.03 0.03 70 1032.3
20260510033356 15 171 3.2 11.3 0.00 0.03 0.03 70 1032.3
20260510032354 15 169 3.2 12.9 0.00 0.03 0.03 71 1032.4
20260510031405 15 198 4.8 12.9 0.00 0.03 0.03 72 1032.4
20260510030415 15 183 3.2 9.7 0.00 0.03 0.03 71 1032.5
20260510025420 15 173 3.2 9.7 0.00 0.03 0.03 73 1032.5
20260510024430 15 180 3.2 8.0 0.00 0.03 0.03 73 1032.6
20260510023413 15 180 3.2 12.9 0.00 0.03 0.03 73 1032.8
20260510022343 15 186 4.8 12.9 0.00 0.03 0.03 73 1032.9
20260510021341 15 211 3.2 8.0 0.00 0.03 0.03 76 1032.9
20260510020341 15 188 3.2 9.7 0.00 0.03 0.03 77 1033.2
20260510015359 15 180 1.6 9.7 0.00 0.03 0.03 79 1033.2
20260510014352 15 194 0.0 6.4 0.00 0.03 0.03 84 1033.3
20260510013330 15 209 0.0 3.2 0.00 0.03 0.03 85 1033.4
20260510004912 13 199 0.0 0.0 0.00 0.05 0.03 93 1033.6
20260510003917 13 227 0.0 0.0 0.00 0.05 0.03 93 1033.7
20260510002920 13 200 0.0 0.0 0.00 0.05 0.03 94 1033.6
20260510000748 13 267 0.0 0.0 0.00 0.05 0.03 94 1033.7
20260509235807 13 283 0.0 0.0 0.00 0.05 0.03 94 1033.7
20260509233600 13 242 0.0 0.0 0.00 0.05 0.03 94 1033.7
20260509232550 13 290 0.0 0.0 0.00 0.05 0.03 94 1033.7
20260509225306 13 252 0.0 0.0 0.00 0.05 0.03 94 1033.4
20260509224318 13 207 0.0 0.0 0.00 0.05 0.03 94 1033.4
20260509222201 12 302 0.0 0.0 0.00 0.05 0.03 94 1033.2
20260509221147 12 318 0.0 0.0 0.00 0.05 0.03 94 1033.2
20260509220155 12 318 0.0 0.0 0.00 0.05 0.03 94 1033.0
20260509215152 12 318 0.0 0.0 0.00 0.05 0.03 94 1032.8
20260509214144 12 338 0.0 0.0 0.00 0.05 0.03 94 1032.6
20260509210813 12 177 0.0 0.0 0.00 0.05 0.03 94 1032.2
20260509205833 12 177 0.0 0.0 0.00 0.08 0.03 94 1032.2
20260509204836 12 177 0.0 0.0 0.00 0.08 0.03 94 1032.0
20260509203830 12 177 0.0 0.0 0.00 0.08 0.03 94 1031.9